Regional Weather Roundup
Issued by NWS Cleveland, OH

Home | Current Version | Previous Version | Graphics & Text | Print | Product List | Glossary On
Versions: 1 2 3 4 5 6 7 8 9 10 11 12 13 14 15 16 17 18 19 20 21 22 23 24 25 26 27 28 29 30 31 32 33 34 35 36 37 38 39 40 41 42 43 44 45 46 47 48 49 50
000
ASUS41 KCLE 200800
RWRCLE
OHIO REGIONAL WEATHER ROUNDUP
NATIONAL WEATHER SERVICE WILMINGTON, OH
400 AM EDT WED AUG 20 2014

NOTE: "FAIR" INDICATES FEW OR NO CLOUDS BELOW 12,000 FEET WITH NO
SIGNIFICANT WEATHER AND/OR OBSTRUCTIONS TO VISIBILITY.

OHZ001>008-015>018-024>027-034-035-043-044-200900-
   NORTHWEST OHIO

CITY           SKY/WX    TMP DP  RH WIND       PRES   REMARKS
DEFIANCE       CLOUDY    69  66  90 SW5       29.80R
FINDLAY        CLOUDY    67  64  90 SW6       29.81R
TOLEDO EXPRESS CLOUDY    65  64  97 SE5       29.79R
TOLEDO METCALF CLOUDY    67  63  87 CALM      29.81R
LIMA             N/A    N/A N/A N/A MISG      29.83R
$$

OHZ009>014-019>023-028>033-038-089-200900-
   NORTHEAST OHIO

CITY           SKY/WX    TMP DP  RH WIND       PRES   REMARKS
CLE-HOPKINS    TSTM      67  65  93 S6        29.85S
CLE-LAKEFRONT  CLOUDY    68  64  87 SE14G22   29.81S
CUY CO. ARPT   NOT AVBL
LORAIN-ELYRIA  CLOUDY    70  65  84 SE8       29.83R
ASHTABULA      CLOUDY    65  63  93 S7        29.86R
AKRON-CANTON   LGT RAIN  67  63  87 E8        29.87R
WOOSTER        NOT AVBL
MANSFIELD      MOCLDY    68  67  96 SE5       29.85R THUNDER
YOUNGSTOWN     TSTM      65  63  93 S7        29.91R FOG
$$

OHZ042-051>053-060>062-070>072-077>081-200900-
  SOUTHWEST OHIO

CITY           SKY/WX    TMP DP  RH WIND       PRES   REMARKS
CINC-COVINGTON CLOUDY    66  64  93 S6        29.87F
CINC-LUNKEN    LGT RAIN  67  66  97 S5        29.87F
HAMILTON       CLOUDY    66  65  96 CALM      29.87R
DAYTON         NOT AVBL
WRIGHT-PAT AFB NOT AVBL
DAYTON GENERAL CLOUDY    66  64  93 S8        29.85R
WILMINGTON     LGT RAIN  68  64  87 W12       29.86F
$$

OHZ036-037-039>041-045>050-054>059-063>069-073>076-082>088-200900-
  CENTRAL AND SOUTHEAST OHIO

CITY           SKY/WX    TMP DP  RH WIND       PRES   REMARKS
COLUMBUS       CLOUDY    77  68  73 S5        29.83R
OSU AIRPORT    TSTM      75  69  81 S13       29.83R
BOLTON FIELD   NOT AVBL
RICKENBACK AFB NOT AVBL
NEWARK         CLOUDY    71  69  93 CALM      29.84R FOG
MARION         HVY RAIN  67  66  97 SW10      29.86R VSB 1
LANCASTER      CLOUDY    75  69  81 S6        29.84R
ZANESVILLE     MOCLDY    73  69  87 SW3       29.84R
NEW PHILLY     CLOUDY    65  65 100 SE9       29.89R THUNDER
$$


USA.gov is the U.S. government's official web portal to all federal, state and local government web resources and services.